Location: Chandolas
(44.4033°N, 4.2533°E)
Time: 16:13:09
(UTC+00:00)

Cosmos 2333 Rocket - Pass Details

Date: 15 November 2019
Orbit: 837 x 865 km, 70.8° (Epoch: 08 December)

Event Time Altitude Azimuth Distance (km) Brightness Sun altitude
Rises 05:56:25 0° 339° (NNW) 3,453 5.0 -7.8°
Reaches altitude 10° 05:59:08 10° 349° (N) 2,514 4.4 -7.3°
Maximum altitude 06:04:22 34° 54° (NE) 1,382 3.7 -6.5°
Drops below altitude 10° 06:09:36 10° 119° (ESE) 2,501 6.5 -5.6°
Sets 06:12:16 0° 128° (SE) 3,433 7.1 -5.1°
